Location: McCloud Nature Park
(39.8272°N, 86.6824°W)
Time: 19:23:35
(UTC-05:00)

Amateur Radio Satellites - All Passes

Search period start: 01 August 2014 18:53
Search period end: 02 August 2014 18:53
Location: McCloud Nature Park, 39.8272°N, 86.6824°W

Satellite Date Start Highest point End Downlink Frequencies (MHz)
Time Altitude Azimuth
SO-67 01 Aug 18:56:22 18:59:44 51° 75° (ENE) 19:03:08 435.3500 MHz FM
MaSat-1 01 Aug 19:10:53 19:12:19 12° 97° (E) 19:13:47 437.345 MHz
RS-15 01 Aug 19:10:54 19:19:04 23° 23° (NNE) 19:27:19 29.354 - 29.394 USB, Beacon 29.352 USB
HO-68 01 Aug 19:34:47 19:40:12 24° 59° (ENE) 19:45:37 435.675 MHz FM
SO-50 01 Aug 20:03:23 20:07:58 45° 53° (NE) 20:12:36 436.795 FM
STRAND 1 01 Aug 20:14:00 20:18:52 46° 289° (WNW) 20:23:42 ?
UKube-1 01 Aug 20:36:40 20:40:28 30° 69° (ENE) 20:44:18 145.840 MHz, 145.915 MHz
MaSat-1 01 Aug 20:44:38 20:48:44 63° 298° (WNW) 20:53:31 437.345 MHz
Oscar 11 01 Aug 21:17:04 21:21:05 40° 72° (ENE) 21:25:08 145.825 FM, Beacon 2401.500 USB
HO-68 01 Aug 21:20:09 21:27:16 68° 256° (WSW) 21:34:26 435.675 MHz FM
RS-15 01 Aug 21:23:26 21:34:21 61° 52° (NE) 21:45:37 29.354 - 29.394 USB, Beacon 29.352 USB
UOSAT-12 01 Aug 21:41:39 21:45:58 34° 50° (NE) 21:50:13 437.025 FM, 437.400 FM
SO-50 01 Aug 21:44:40 21:48:15 21° 249° (WSW) 21:51:51 436.795 FM
ISS 01 Aug 21:49:57 21:53:11 52° 138° (SE) 21:56:27 145.800 FM
FUNcube-1 01 Aug 21:50:18 21:54:09 34° 71° (ENE) 21:57:57 145.950 - 145.970 MHz USB
UKube-1 01 Aug 22:13:12 22:16:40 23° 265° (W) 22:20:10 145.840 MHz, 145.915 MHz
PCSat 01 Aug 22:19:51 22:20:24 10° 101° (E) 22:20:57 145.825 MHz
Oscar 11 01 Aug 22:54:43 22:57:27 16° 267° (W) 23:00:11 145.825 FM, Beacon 2401.500 USB
UOSAT-12 01 Aug 23:21:59 23:26:00 28° 247° (WSW) 23:29:59 437.025 FM, 437.400 FM
Sapphire 01 Aug 23:25:01 23:30:03 42° 111° (ESE) 23:35:07 437.095 MHz 1200 baud AX-25 AFSK
ISS 01 Aug 23:27:20 23:30:05 23° 336° (NNW) 23:32:50 145.800 FM
FUNcube-1 01 Aug 23:27:34 23:30:38 19° 266° (W) 23:33:39 145.950 - 145.970 MHz USB
RS-15 01 Aug 23:36:21 23:46:12 39° 252° (WSW) 23:56:27 29.354 - 29.394 USB, Beacon 29.352 USB
Oscar 10/S400 01 Aug 23:46:17 00:13:53 66° 176° (S) 09:26:27 145.825 - 145.975 CW/USB, Beacon 145.810 USB
PCSat 01 Aug 23:57:31 00:02:56 87° 117° (ESE) 00:08:23 145.825 MHz
ISS 02 Aug 01:06:36 01:07:45 11° 356° (N) 01:08:54 145.800 FM
Sapphire 02 Aug 01:08:57 01:13:36 29° 309° (NW) 01:18:16 437.095 MHz 1200 baud AX-25 AFSK
AO-40 02 Aug 01:18:42 02:41:48 15° 114° (ESE) 03:34:46 Beacon 2401.320
Oscar 19 02 Aug 01:25:09 01:28:59 21° 93° (E) 01:32:48 437.125 CW, 437.150 USB
PCSat 02 Aug 01:43:46 01:47:05 16° 317° (NW) 01:50:24 145.825 MHz
Oscar 16 02 Aug 01:53:32 01:58:25 40° 98° (E) 02:03:16 437.025 USB, Beacon 2401.1428
JAS-1B 02 Aug 01:55:18 02:01:05 19° 84° (E) 02:06:18 435.800 - 435.900 CW/SSB
ITAMSAT 1 02 Aug 02:23:41 02:28:20 33° 97° (E) 02:32:58 435.822 SSB
Uribyol 2 02 Aug 02:41:43 02:46:46 53° 100° (E) 02:51:47 436.500 FM
ISS 02 Aug 02:43:29 02:45:35 15° 16° (NNE) 02:47:41 145.800 FM
AO-27 02 Aug 02:43:48 02:48:53 53° 100° (E) 02:53:55 436.795 MHz FM
AO-Echo 02 Aug 02:45:30 02:50:27 58° 100° (E) 02:55:12 ?
Oscar 19 02 Aug 03:03:36 03:08:31 46° 289° (WNW) 03:13:27 437.125 CW, 437.150 USB
TMSAT-1 02 Aug 03:04:16 03:08:34 25° 94° (E) 03:12:51 436.925 FM
PANSAT 02 Aug 03:10:01 03:11:43 13° 170° (S) 03:13:25 not established
OPAL 02 Aug 03:20:07 03:24:38 37° 67° (ENE) 03:29:11 ?
Gurwin Techsat 1B 02 Aug 03:30:52 03:36:09 62° 101° (E) 03:41:23 435.225 FM
Oscar 16 02 Aug 03:33:25 03:37:31 24° 294° (WNW) 03:41:36 437.025 USB, Beacon 2401.1428
AO-7 02 Aug 03:34:34 03:38:49 15° 89° (E) 03:43:03 29.400 - 29.500 MHz
KITSAT 1 02 Aug 03:39:05 03:42:33 13° 99° (E) 03:46:01 435.175 FM
JAS-1B 02 Aug 03:43:43 03:52:55 86° 286° (WNW) 04:00:36 435.800 - 435.900 CW/SSB
ITAMSAT 1 02 Aug 04:03:19 04:07:43 29° 293° (WNW) 04:12:05 435.822 SSB
ISS 02 Aug 04:19:31 04:22:51 60° 35° (NE) 04:26:10 145.800 FM
Uribyol 2 02 Aug 04:22:17 04:25:49 19° 297° (WNW) 04:29:21 436.500 FM
AO-27 02 Aug 04:24:24 04:27:57 19° 297° (WNW) 04:31:30 436.795 MHz FM
AO-Echo 02 Aug 04:25:40 04:28:41 16° 298° (WNW) 04:31:38 ?
TMSAT-1 02 Aug 04:43:42 04:48:35 39° 290° (WNW) 04:53:27 436.925 FM
Uosat F 02 Aug 04:46:18 04:51:10 49° 100° (E) 04:56:00 435.120 FM
PANSAT 02 Aug 04:48:56 04:51:12 15° 183° (S) 04:53:29 not established
OPAL 02 Aug 04:59:39 05:03:36 24° 263° (W) 05:07:35 ?
MaSat-1 02 Aug 05:03:45 05:08:23 30° 55° (NE) 05:12:46 437.345 MHz
Gurwin Techsat 1B 02 Aug 05:12:13 05:15:35 17° 298° (WNW) 05:18:56 435.225 FM
AO-7 02 Aug 05:24:22 05:32:44 82° 107° (ESE) 05:41:02 29.400 - 29.500 MHz
KITSAT 1 02 Aug 05:28:31 05:36:35 77° 116° (ESE) 05:44:41 435.175 FM
JAS-1B 02 Aug 05:35:45 05:41:54 21° 308° (NW) 05:47:31 435.800 - 435.900 CW/SSB
Hamsat 02 Aug 05:50:35 05:53:33 18° 93° (E) 05:56:30 145.90 MHz
STRAND 1 02 Aug 05:50:53 05:55:11 28° 67° (ENE) 05:59:29 ?
JAS-2 02 Aug 05:54:22 05:57:54 17° 89° (E) 06:01:15 435.800 - 435.900 CW/SSB, 435.910 FM
ISS 02 Aug 05:57:18 05:59:13 14° 230° (SW) 06:01:07 145.800 FM
Saudisat 1A 02 Aug 06:15:06 06:19:22 52° 118° (ESE) 06:23:40 436.775 MHz
Uosat F 02 Aug 06:26:04 06:29:34 19° 296° (WNW) 06:33:03 435.120 FM
MaSat-1 02 Aug 06:40:59 06:45:43 35° 254° (WSW) 06:50:07 437.345 MHz
PCSat 02 Aug 07:05:44 07:07:04 11° 38° (NE) 07:08:23 145.825 MHz
AO-7 02 Aug 07:18:30 07:24:35 23° 306° (NW) 07:30:40 29.400 - 29.500 MHz
Hamsat 02 Aug 07:25:37 07:29:38 38° 288° (WNW) 07:33:39 145.90 MHz
KITSAT 1 02 Aug 07:26:02 07:32:47 28° 318° (NW) 07:39:34 435.175 FM
STRAND 1 02 Aug 07:29:34 07:34:13 34° 263° (W) 07:38:54 ?
JAS-2 02 Aug 07:37:58 07:43:33 55° 289° (WNW) 07:48:40 435.800 - 435.900 CW/SSB, 435.910 FM
SO-67 02 Aug 07:53:50 07:57:19 72° 101° (ESE) 08:00:46 435.3500 MHz FM
Saudisat 1A 02 Aug 07:56:02 07:59:15 19° 315° (NW) 08:02:28 436.775 MHz
Sapphire 02 Aug 08:13:42 08:18:28 30° 52° (NE) 08:23:13 437.095 MHz 1200 baud AX-25 AFSK
PCSat 02 Aug 08:46:18 08:51:40 58° 58° (ENE) 08:57:00 145.825 MHz
HO-68 02 Aug 08:49:34 08:55:10 24° 94° (E) 09:00:43 435.675 MHz FM
KITSAT 1 02 Aug 09:30:49 09:31:36 10° 346° (NNW) 09:32:22 435.175 FM
Sapphire 02 Aug 09:56:57 10:01:57 39° 249° (WSW) 10:06:56 437.095 MHz 1200 baud AX-25 AFSK
UKube-1 02 Aug 10:01:11 10:05:30 62° 102° (ESE) 10:09:47 145.840 MHz, 145.915 MHz
SO-50 02 Aug 10:19:34 10:22:17 16° 109° (ESE) 10:25:02 436.795 FM
PCSat 02 Aug 10:30:56 10:34:34 19° 255° (WSW) 10:38:12 145.825 MHz
HO-68 02 Aug 10:36:15 10:43:16 61° 291° (WNW) 10:50:15 435.675 MHz FM
Oscar 11 02 Aug 10:41:08 10:45:30 86° 283° (WNW) 10:49:51 145.825 FM, Beacon 2401.500 USB
FUNcube-1 02 Aug 11:15:48 11:20:01 84° 103° (ESE) 11:24:17 145.950 - 145.970 MHz USB
KITSAT 1 02 Aug 11:29:16 11:31:45 11° 19° (NNE) 11:34:14 435.175 FM
UKube-1 02 Aug 11:39:22 11:41:10 12° 298° (WNW) 11:42:58 145.840 MHz, 145.915 MHz
RS-15 02 Aug 11:46:47 11:56:45 39° 108° (ESE) 12:06:28 29.354 - 29.394 USB, Beacon 29.352 USB
UOSAT-12 02 Aug 11:55:43 11:56:44 11° 106° (ESE) 11:57:45 437.025 FM, 437.400 FM
SO-50 02 Aug 11:58:02 12:02:23 52° 306° (NW) 12:06:51 436.795 FM
HO-68 02 Aug 12:27:29 12:29:33 11° 310° (NW) 12:31:36 435.675 MHz FM
JAS-1B 02 Aug 12:37:56 12:44:17 21° 52° (NE) 12:50:49 435.800 - 435.900 CW/SSB
Oscar 19 02 Aug 12:41:20 12:45:38 28° 67° (ENE) 12:49:57 437.125 CW, 437.150 USB
Oscar 16 02 Aug 13:09:46 13:14:44 54° 72° (ENE) 13:19:44 437.025 USB, Beacon 2401.1428
Gurwin Techsat 1B 02 Aug 13:15:34 13:17:22 12° 59° (ENE) 13:19:11 435.225 FM
KITSAT 1 02 Aug 13:22:55 13:30:09 34° 46° (NE) 13:37:19 435.175 FM
UOSAT-12 02 Aug 13:31:34 13:36:09 79° 302° (WNW) 13:40:52 437.025 FM, 437.400 FM
ITAMSAT 1 02 Aug 13:40:52 13:45:50 47° 71° (ENE) 13:50:49 435.822 SSB
AO-Echo 02 Aug 13:57:00 14:02:17 71° 74° (ENE) 14:07:35 ?
RS-15 02 Aug 13:57:41 14:08:36 59° 309° (NW) 14:19:23 29.354 - 29.394 USB, Beacon 29.352 USB
Uribyol 2 02 Aug 13:58:48 14:03:59 75° 74° (ENE) 14:09:10 436.500 FM
AO-27 02 Aug 14:01:08 14:06:20 76° 74° (ENE) 14:11:34 436.795 MHz FM
Oscar 19 02 Aug 14:20:15 14:24:50 34° 263° (W) 14:29:28 437.125 CW, 437.150 USB
JAS-1B 02 Aug 14:23:58 14:33:05 77° 72° (ENE) 14:43:01 435.800 - 435.900 CW/SSB
TMSAT-1 02 Aug 14:24:12 14:29:00 36° 69° (ENE) 14:33:49 436.925 FM
AO-7 02 Aug 14:32:31 14:38:39 23° 54° (NE) 14:44:45 29.400 - 29.500 MHz
Saudisat 1A 02 Aug 14:42:39 14:46:42 34° 51° (NE) 14:50:42 436.775 MHz
Oscar 16 02 Aug 14:51:10 14:54:25 17° 268° (W) 14:57:41 437.025 USB, Beacon 2401.1428
Gurwin Techsat 1B 02 Aug 14:51:13 14:56:32 89° 76° (ENE) 15:01:52 435.225 FM
UOSAT-12 02 Aug 15:14:59 15:17:06 13° 322° (NW) 15:19:14 437.025 FM, 437.400 FM
KITSAT 1 02 Aug 15:18:03 15:25:57 60° 247° (WSW) 15:33:48 435.175 FM
ITAMSAT 1 02 Aug 15:21:46 15:25:33 20° 267° (W) 15:29:20 435.822 SSB
AO-Echo 02 Aug 15:38:49 15:41:31 14° 270° (W) 15:44:12 ?
Uribyol 2 02 Aug 15:41:55 15:43:59 12° 270° (W) 15:46:02 436.500 FM
AO-27 02 Aug 15:44:20 15:46:23 12° 270° (W) 15:48:27 436.795 MHz FM
Uosat F 02 Aug 15:58:42 16:03:41 64° 73° (ENE) 16:08:41 435.120 FM
TMSAT-1 02 Aug 16:04:31 16:08:57 27° 265° (W) 16:13:25 436.925 FM
JAS-2 02 Aug 16:08:11 16:10:12 11° 55° (NE) 16:12:10 435.800 - 435.900 CW/SSB, 435.910 FM
RS-15 02 Aug 16:15:55 16:23:56 22° 338° (NNW) 16:31:59 29.354 - 29.394 USB, Beacon 29.352 USB
JAS-1B 02 Aug 16:17:04 16:24:22 26° 271° (W) 16:32:14 435.800 - 435.900 CW/SSB
AO-7 02 Aug 16:22:06 16:30:29 83° 253° (WSW) 16:38:54 29.400 - 29.500 MHz
Saudisat 1A 02 Aug 16:22:32 16:26:07 24° 248° (WSW) 16:29:40 436.775 MHz
Gurwin Techsat 1B 02 Aug 16:36:41 16:37:10 10° 272° (W) 16:37:38 435.225 FM
Hamsat 02 Aug 16:44:56 16:46:34 12° 64° (ENE) 16:48:12 145.90 MHz
OPAL 02 Aug 17:08:44 17:13:52 90° 292° (WNW) 17:19:02 ?
Uosat F 02 Aug 17:40:18 17:42:53 14° 269° (W) 17:45:29 435.120 FM
JAS-2 02 Aug 17:46:29 17:54:01 60° 72° (ENE) 18:00:58 435.800 - 435.900 CW/SSB, 435.910 FM
Hamsat 02 Aug 18:17:54 18:22:00 58° 260° (W) 18:26:11 145.90 MHz
AO-7 02 Aug 18:19:58 18:24:22 15° 271° (W) 18:28:48 29.400 - 29.500 MHz
SO-67 02 Aug 18:26:56 18:29:34 21° 70° (ENE) 18:32:14 435.3500 MHz FM
RS-15 02 Aug 18:34:29 18:42:01 20° 16° (NNE) 18:49:37 29.354 - 29.394 USB, Beacon 29.352 USB
